TimeCST,TemperatureF,Dew PointF,Humidity,Sea Level PressureIn,VisibilityMPH,Wind Direction,Wind SpeedMPH,Gust SpeedMPH,PrecipitationIn,Events,Conditions,WindDirDegrees,DateUTC
12:54 AM,-5.1,-11.9,72,30.55,10.0,NNW,13.8,-,N/A,,Clear,330,2013-01-24 06:54:00
1:54 AM,-6.0,-11.9,75,30.58,10.0,NNW,11.5,-,N/A,,Clear,340,2013-01-24 07:54:00
2:54 AM,-6.0,-11.9,75,30.61,10.0,NNW,9.2,-,N/A,,Clear,340,2013-01-24 08:54:00
3:54 AM,-6.0,-11.9,75,30.63,10.0,North,5.8,-,N/A,,Clear,350,2013-01-24 09:54:00
4:54 AM,-6.0,-11.9,75,30.65,10.0,North,5.8,-,N/A,,Clear,360,2013-01-24 10:54:00
5:54 AM,-7.1,-11.9,79,30.67,10.0,NNW,5.8,-,N/A,,Clear,330,2013-01-24 11:54:00
6:54 AM,-7.1,-11.9,79,30.68,10.0,NNW,5.8,-,N/A,,Clear,340,2013-01-24 12:54:00
7:54 AM,-6.0,-11.0,79,30.70,10.0,NNW,4.6,-,N/A,,Clear,340,2013-01-24 13:54:00
8:54 AM,-2.9,-9.9,72,30.70,10.0,NE,3.5,-,N/A,,Clear,40,2013-01-24 14:54:00
9:54 AM,-0.0,-8.0,69,30.69,10.0,Calm,Calm,-,N/A,,Clear,0,2013-01-24 15:54:00
10:54 AM,1.9,-6.0,69,30.68,10.0,East,4.6,-,N/A,,Clear,100,2013-01-24 16:54:00
11:54 AM,3.0,-6.0,66,30.66,10.0,SE,4.6,-,N/A,,Clear,140,2013-01-24 17:54:00
12:54 PM,5.0,-6.0,61,30.64,10.0,SSE,3.5,-,N/A,,Clear,150,2013-01-24 18:54:00
1:54 PM,6.1,-5.1,60,30.61,10.0,South,5.8,-,N/A,,Clear,180,2013-01-24 19:54:00
2:54 PM,7.0,-5.1,58,30.59,10.0,Calm,Calm,-,N/A,,Overcast,0,2013-01-24 20:54:00
3:54 PM,8.1,-5.1,55,30.56,10.0,SE,4.6,-,N/A,,Overcast,130,2013-01-24 21:54:00
4:54 PM,7.0,-5.1,58,30.53,10.0,SE,8.1,-,N/A,,Mostly Cloudy,140,2013-01-24 22:54:00
5:54 PM,8.1,-4.0,58,30.50,10.0,SE,8.1,-,N/A,,Overcast,140,2013-01-24 23:54:00
6:54 PM,8.1,-4.0,58,30.48,10.0,SSE,10.4,-,N/A,,Overcast,150,2013-01-25 00:54:00
7:54 PM,8.1,-4.0,58,30.45,10.0,SE,9.2,-,N/A,,Overcast,140,2013-01-25 01:54:00
8:54 PM,8.1,-2.0,64,30.42,10.0,SE,11.5,-,0.00,,Overcast,140,2013-01-25 02:54:00
9:54 PM,8.1,-0.0,70,30.38,10.0,SE,11.5,-,N/A,,Overcast,130,2013-01-25 03:54:00
10:54 PM,8.1,1.0,73,30.38,10.0,SSE,9.2,-,N/A,,Overcast,150,2013-01-25 04:54:00
11:54 PM,9.0,-0.0,67,30.35,10.0,SE,6.9,-,N/A,,Overcast,140,2013-01-25 05:54:00